Time,TemperatureF,DewpointF,PressureIn,WindDirection,WindDirectionDegrees,WindSpeedMPH,WindSpeedGustMPH,Humidity,HourlyPrecipIn,Conditions,Clouds,dailyrainin,SoftwareType,DateUTC
2013-01-27 00:00:00,28.2,25.3,30.39,NE,36,0.0,0.0,89,0.00,,,0.00,meteohub,2013-01-27 05:00:00,
2013-01-27 00:01:00,28.2,25.3,30.39,NE,36,0.0,0.0,89,0.00,,,0.00,meteohub,2013-01-27 05:01:00,
2013-01-27 00:04:00,28.0,25.2,30.39,NE,36,0.0,0.0,89,0.00,,,0.00,meteohub,2013-01-27 05:04:00,
2013-01-27 00:09:00,27.9,25.0,30.39,NE,36,0.0,0.0,89,0.00,,,0.00,meteohub,2013-01-27 05:09:00,
2013-01-27 00:14:00,27.5,24.6,30.39,NE,36,0.0,0.0,89,0.00,,,0.00,meteohub,2013-01-27 05:14:00,
2013-01-27 00:20:00,27.3,24.8,30.39,NE,37,0.0,0.0,90,0.00,,,0.00,meteohub,2013-01-27 05:20:00,
2013-01-27 00:25:00,27.0,24.4,30.39,NE,36,0.0,0.0,90,0.00,,,0.00,meteohub,2013-01-27 05:25:00,
2013-01-27 00:30:00,27.0,24.6,30.39,NE,36,0.0,0.0,91,0.00,,,0.00,meteohub,2013-01-27 05:30:00,
2013-01-27 00:35:00,26.8,24.4,30.39,NE,35,0.0,0.0,91,0.00,,,0.00,meteohub,2013-01-27 05:35:00,
2013-01-27 00:40:00,26.8,24.8,30.39,NE,36,0.0,0.0,92,0.00,,,0.00,meteohub,2013-01-27 05:40:00,
2013-01-27 00:45:00,26.8,24.8,30.39,NE,37,0.0,0.0,92,0.00,,,0.00,meteohub,2013-01-27 05:45:00,
2013-01-27 00:50:00,26.6,24.6,30.39,NE,36,0.0,0.0,92,0.00,,,0.00,meteohub,2013-01-27 05:50:00,
2013-01-27 00:55:00,26.2,24.3,30.39,NE,37,0.0,0.0,92,0.00,,,0.00,meteohub,2013-01-27 05:55:00,
2013-01-27 01:00:00,26.1,24.1,30.39,NE,36,0.0,0.0,92,0.00,,,0.00,meteohub,2013-01-27 06:00:00,
2013-01-27 01:05:00,25.9,23.9,30.39,NE,36,0.0,0.0,92,0.00,,,0.00,meteohub,2013-01-27 06:05:00,
2013-01-27 01:10:00,25.3,23.4,30.39,NE,37,0.0,0.0,92,0.00,,,0.00,meteohub,2013-01-27 06:10:00,
2013-01-27 01:15:00,25.2,23.2,30.40,NE,36,0.0,0.0,92,0.00,,,0.00,meteohub,2013-01-27 06:15:00,
2013-01-27 01:20:00,25.0,23.2,30.40,NE,36,0.0,0.0,93,0.00,,,0.00,meteohub,2013-01-27 06:20:00,
2013-01-27 01:25:00,25.3,23.9,30.40,NE,36,0.0,0.0,94,0.00,,,0.00,meteohub,2013-01-27 06:25:00,
2013-01-27 01:30:00,25.3,23.9,30.40,NE,35,0.0,0.0,94,0.00,,,0.00,meteohub,2013-01-27 06:30:00,
2013-01-27 01:35:00,25.3,23.9,30.40,NE,36,0.0,0.0,94,0.00,,,0.00,meteohub,2013-01-27 06:35:00,
2013-01-27 01:40:00,25.3,23.9,30.41,NE,35,0.0,0.0,94,0.00,,,0.00,meteohub,2013-01-27 06:40:00,
2013-01-27 01:45:00,25.3,23.9,30.41,NE,35,0.0,0.0,94,0.00,,,0.00,meteohub,2013-01-27 06:45:00,
2013-01-27 01:50:00,25.3,23.9,30.41,NE,36,0.0,0.0,94,0.00,,,0.00,meteohub,2013-01-27 06:50:00,
2013-01-27 01:55:00,25.3,23.9,30.41,NE,36,0.0,0.0,94,0.00,,,0.00,meteohub,2013-01-27 06:55:00,
2013-01-27 02:00:00,25.3,23.9,30.42,NE,36,0.0,0.0,94,0.00,,,0.00,meteohub,2013-01-27 07:00:00,
2013-01-27 02:05:00,25.3,23.9,30.42,NE,36,0.0,0.0,94,0.00,,,0.00,meteohub,2013-01-27 07:05:00,
2013-01-27 02:13:00,25.3,23.9,30.42,NE,36,0.0,0.0,94,0.00,,,0.00,meteohub,2013-01-27 07:13:00,
2013-01-27 02:18:00,25.5,24.3,30.42,NE,37,0.0,0.0,95,0.00,,,0.00,meteohub,2013-01-27 07:18:00,
2013-01-27 02:23:00,25.7,24.4,30.42,NE,36,0.0,0.0,95,0.00,,,0.00,meteohub,2013-01-27 07:23:00,
2013-01-27 02:28:00,25.5,24.3,30.43,NE,36,0.0,0.0,95,0.00,,,0.00,meteohub,2013-01-27 07:28:00,
2013-01-27 02:33:00,25.3,24.1,30.43,NE,36,0.0,0.0,95,0.00,,,0.00,meteohub,2013-01-27 07:33:00,
2013-01-27 02:38:00,25.3,24.1,30.43,NE,37,0.0,0.0,95,0.00,,,0.00,meteohub,2013-01-27 07:38:00,
2013-01-27 02:43:00,25.2,23.9,30.43,NE,37,0.0,0.0,95,0.00,,,0.00,meteohub,2013-01-27 07:43:00,
2013-01-27 02:48:00,25.0,23.7,30.43,NE,36,0.0,0.0,95,0.00,,,0.00,meteohub,2013-01-27 07:48:00,
2013-01-27 02:53:00,25.0,23.7,30.44,NE,36,0.0,0.0,95,0.00,,,0.00,meteohub,2013-01-27 07:53:00,
2013-01-27 02:58:00,24.8,23.5,30.44,NE,36,0.0,0.0,95,0.00,,,0.00,meteohub,2013-01-27 07:58:00,
2013-01-27 03:03:00,24.8,23.5,30.45,NE,36,0.0,0.0,95,0.00,,,0.00,meteohub,2013-01-27 08:03:00,
2013-01-27 03:08:00,24.8,23.5,30.44,NE,36,0.0,0.0,95,0.00,,,0.00,meteohub,2013-01-27 08:08:00,
2013-01-27 03:13:00,24.8,23.5,30.44,NE,36,0.0,0.0,95,0.00,,,0.00,meteohub,2013-01-27 08:13:00,
2013-01-27 03:18:00,24.6,23.4,30.44,NE,36,0.0,0.0,95,0.00,,,0.00,meteohub,2013-01-27 08:18:00,
2013-01-27 03:23:00,24.6,23.4,30.44,NE,37,0.0,0.0,95,0.00,,,0.00,meteohub,2013-01-27 08:23:00,
2013-01-27 03:28:00,25.2,24.3,30.44,NE,36,0.0,0.0,96,0.00,,,0.00,meteohub,2013-01-27 08:28:00,
2013-01-27 03:33:00,25.0,24.1,30.44,NE,36,0.0,0.0,96,0.00,,,0.00,meteohub,2013-01-27 08:33:00,
2013-01-27 03:38:00,25.2,24.3,30.44,NE,36,0.0,0.0,96,0.00,,,0.00,meteohub,2013-01-27 08:38:00,
2013-01-27 03:43:00,25.5,24.6,30.44,NE,36,0.0,0.0,96,0.00,,,0.00,meteohub,2013-01-27 08:43:00,
2013-01-27 03:48:00,25.9,25.0,30.44,NE,36,0.0,0.0,96,0.00,,,0.00,meteohub,2013-01-27 08:48:00,
2013-01-27 03:53:00,26.1,24.8,30.45,NE,37,0.0,0.0,95,0.00,,,0.00,meteohub,2013-01-27 08:53:00,
2013-01-27 03:58:00,25.9,24.4,30.44,NE,36,0.0,0.0,94,0.00,,,0.00,meteohub,2013-01-27 08:58:00,
2013-01-27 04:04:00,25.3,23.9,30.44,NE,36,0.0,0.0,94,0.00,,,0.00,meteohub,2013-01-27 09:04:00,
2013-01-27 04:09:00,25.2,23.7,30.44,NE,36,0.0,0.0,94,0.00,,,0.00,meteohub,2013-01-27 09:09:00,
2013-01-27 04:14:00,25.0,23.5,30.44,NE,36,0.0,0.0,94,0.00,,,0.00,meteohub,2013-01-27 09:14:00,
2013-01-27 04:19:00,24.8,23.4,30.45,NE,36,0.0,0.0,94,0.00,,,0.00,meteohub,2013-01-27 09:19:00,
2013-01-27 04:24:00,25.2,23.9,30.45,NE,36,0.0,0.0,95,0.00,,,0.00,meteohub,2013-01-27 09:24:00,
2013-01-27 04:29:00,25.5,24.6,30.44,NE,36,0.0,0.0,96,0.00,,,0.00,meteohub,2013-01-27 09:29:00,
2013-01-27 04:34:00,25.5,24.3,30.45,NE,36,0.0,0.0,95,0.00,,,0.00,meteohub,2013-01-27 09:34:00,
2013-01-27 04:39:00,25.3,24.1,30.45,NE,36,0.0,0.0,95,0.00,,,0.00,meteohub,2013-01-27 09:39:00,
2013-01-27 04:44:00,25.3,24.1,30.45,NE,36,0.0,0.0,95,0.00,,,0.00,meteohub,2013-01-27 09:44:00,
2013-01-27 04:49:00,25.3,24.1,30.45,NE,36,0.0,0.0,95,0.00,,,0.00,meteohub,2013-01-27 09:49:00,
2013-01-27 04:54:00,25.0,23.5,30.46,NE,36,0.0,0.0,94,0.00,,,0.00,meteohub,2013-01-27 09:54:00,
2013-01-27 04:59:00,24.6,23.2,30.46,NE,36,0.0,0.0,94,0.00,,,0.00,meteohub,2013-01-27 09:59:00,
2013-01-27 05:04:00,24.4,23.0,30.46,NE,36,0.0,0.0,94,0.00,,,0.00,meteohub,2013-01-27 10:04:00,
2013-01-27 05:09:00,24.3,22.8,30.46,NE,36,0.0,0.0,94,0.00,,,0.00,meteohub,2013-01-27 10:09:00,
2013-01-27 05:14:00,24.3,23.0,30.46,NE,35,0.0,0.0,95,0.00,,,0.00,meteohub,2013-01-27 10:14:00,
2013-01-27 05:19:00,24.3,23.0,30.46,NE,35,0.0,0.0,95,0.00,,,0.00,meteohub,2013-01-27 10:19:00,
2013-01-27 05:24:00,24.1,22.8,30.46,NE,36,0.0,0.0,95,0.00,,,0.00,meteohub,2013-01-27 10:24:00,
2013-01-27 05:29:00,23.7,22.5,30.46,NE,36,0.0,0.0,95,0.00,,,0.00,meteohub,2013-01-27 10:29:00,
2013-01-27 05:34:00,23.9,22.6,30.46,NE,35,0.0,0.0,95,0.00,,,0.00,meteohub,2013-01-27 10:34:00,
2013-01-27 05:39:00,24.1,23.2,30.46,NE,36,0.0,0.0,96,0.00,,,0.00,meteohub,2013-01-27 10:39:00,
2013-01-27 05:44:00,23.9,22.6,30.47,NE,36,0.0,0.0,95,0.00,,,0.00,meteohub,2013-01-27 10:44:00,
2013-01-27 05:49:00,24.1,23.2,30.46,NE,36,0.0,0.0,96,0.00,,,0.00,meteohub,2013-01-27 10:49:00,
2013-01-27 05:55:00,23.9,22.6,30.46,NE,36,0.0,0.0,95,0.00,,,0.00,meteohub,2013-01-27 10:55:00,
2013-01-27 06:00:00,24.1,22.8,30.47,NE,36,0.0,0.0,95,0.00,,,0.00,meteohub,2013-01-27 11:00:00,
2013-01-27 06:05:00,23.9,23.0,30.47,NE,36,0.0,0.0,96,0.00,,,0.00,meteohub,2013-01-27 11:05:00,
2013-01-27 06:10:00,24.3,23.4,30.48,NE,36,0.0,0.0,96,0.00,,,0.00,meteohub,2013-01-27 11:10:00,
2013-01-27 06:15:00,24.4,23.5,30.48,NE,36,0.0,1.0,96,0.00,,,0.00,meteohub,2013-01-27 11:15:00,
2013-01-27 06:20:00,24.3,23.4,30.48,NE,36,0.0,1.0,96,0.00,,,0.00,meteohub,2013-01-27 11:20:00,
2013-01-27 06:25:00,24.1,22.8,30.49,NE,35,0.0,1.0,95,0.00,,,0.00,meteohub,2013-01-27 11:25:00,
2013-01-27 06:30:00,23.9,23.0,30.49,NE,36,0.0,0.0,96,0.00,,,0.00,meteohub,2013-01-27 11:30:00,
2013-01-27 06:35:00,23.5,22.3,30.49,NE,36,0.0,0.0,95,0.00,,,0.00,meteohub,2013-01-27 11:35:00,
2013-01-27 06:40:00,23.4,22.1,30.50,NE,36,0.0,0.0,95,0.00,,,0.00,meteohub,2013-01-27 11:40:00,
2013-01-27 06:45:00,23.2,21.9,30.50,NE,35,0.0,0.0,95,0.00,,,0.00,meteohub,2013-01-27 11:45:00,
2013-01-27 06:50:00,22.8,21.6,30.50,NE,36,0.0,0.0,95,0.00,,,0.00,meteohub,2013-01-27 11:50:00,
2013-01-27 06:55:00,22.6,21.4,30.50,NE,36,0.0,0.0,95,0.00,,,0.00,meteohub,2013-01-27 11:55:00,
2013-01-27 07:00:00,22.8,21.6,30.50,NE,36,0.0,0.0,95,0.00,,,0.00,meteohub,2013-01-27 12:00:00,
2013-01-27 07:05:00,23.4,22.5,30.51,West,265,0.0,1.0,96,0.00,,,0.00,meteohub,2013-01-27 12:05:00,
2013-01-27 07:10:00,23.7,22.8,30.51,West,266,0.0,1.0,96,0.00,,,0.00,meteohub,2013-01-27 12:10:00,
2013-01-27 07:15:00,24.3,23.4,30.51,West,266,0.0,1.0,96,0.00,,,0.00,meteohub,2013-01-27 12:15:00,
2013-01-27 07:20:00,25.0,24.3,30.52,West,266,0.0,0.0,97,0.00,,,0.00,meteohub,2013-01-27 12:20:00,
2013-01-27 07:25:00,25.2,24.4,30.51,West,266,0.0,0.0,97,0.00,,,0.00,meteohub,2013-01-27 12:25:00,
2013-01-27 07:30:00,25.3,24.4,30.52,NNW,346,0.0,0.0,96,0.00,,,0.00,meteohub,2013-01-27 12:30:00,
2013-01-27 07:35:00,25.3,24.4,30.52,NNW,345,0.0,0.0,96,0.00,,,0.00,meteohub,2013-01-27 12:35:00,
2013-01-27 07:40:00,25.3,24.4,30.52,NNW,346,0.0,0.0,96,0.00,,,0.00,meteohub,2013-01-27 12:40:00,
2013-01-27 07:45:00,25.3,24.4,30.52,NNW,345,0.0,0.0,96,0.00,,,0.00,meteohub,2013-01-27 12:45:00,
2013-01-27 07:50:00,25.2,24.3,30.53,NNW,346,0.0,0.0,96,0.00,,,0.00,meteohub,2013-01-27 12:50:00,
2013-01-27 07:55:00,25.2,24.3,30.53,NNW,345,0.0,0.0,96,0.00,,,0.00,meteohub,2013-01-27 12:55:00,
2013-01-27 08:00:00,25.3,24.4,30.53,NNW,345,0.0,0.0,96,0.00,,,0.00,meteohub,2013-01-27 13:00:00,
2013-01-27 08:05:00,25.3,24.4,30.53,NNW,346,0.0,0.0,96,0.00,,,0.00,meteohub,2013-01-27 13:05:00,
2013-01-27 08:11:00,25.2,24.3,30.53,NNW,346,0.0,0.0,96,0.00,,,0.00,meteohub,2013-01-27 13:11:00,
2013-01-27 08:16:00,25.2,24.3,30.53,NNW,346,0.0,0.0,96,0.00,,,0.00,meteohub,2013-01-27 13:16:00,
2013-01-27 08:21:00,25.2,24.3,30.53,NNW,346,0.0,0.0,96,0.00,,,0.00,meteohub,2013-01-27 13:21:00,
2013-01-27 08:26:00,25.3,24.4,30.53,WSW,248,0.0,0.0,96,0.00,,,0.00,meteohub,2013-01-27 13:26:00,
2013-01-27 08:31:00,25.3,24.4,30.54,WSW,248,0.0,0.0,96,0.00,,,0.00,meteohub,2013-01-27 13:31:00,
2013-01-27 08:36:00,25.5,24.6,30.54,WSW,247,0.0,0.0,96,0.00,,,0.00,meteohub,2013-01-27 13:36:00,
2013-01-27 08:41:00,25.9,25.0,30.54,WSW,248,0.0,0.0,96,0.00,,,0.00,meteohub,2013-01-27 13:41:00,
2013-01-27 08:46:00,25.9,25.0,30.54,WSW,248,0.0,0.0,96,0.00,,,0.00,meteohub,2013-01-27 13:46:00,
2013-01-27 08:51:00,26.1,25.2,30.54,WSW,248,0.0,0.0,96,0.00,,,0.00,meteohub,2013-01-27 13:51:00,
2013-01-27 08:56:00,26.4,25.5,30.54,WNW,297,0.0,0.0,96,0.00,,,0.00,meteohub,2013-01-27 13:56:00,
2013-01-27 09:01:00,26.8,25.9,30.54,NE,36,0.0,0.0,96,0.00,,,0.00,meteohub,2013-01-27 14:01:00,
2013-01-27 09:06:00,27.0,26.1,30.54,NE,50,1.0,2.0,96,0.00,,,0.00,meteohub,2013-01-27 14:06:00,
2013-01-27 09:11:00,27.3,26.1,30.54,ENE,72,2.0,3.0,95,0.00,,,0.00,meteohub,2013-01-27 14:11:00,
2013-01-27 09:16:00,27.7,26.2,30.54,NE,44,2.0,3.0,94,0.00,,,0.00,meteohub,2013-01-27 14:16:00,
2013-01-27 09:21:00,27.9,26.4,30.54,NE,43,2.0,4.0,94,0.00,,,0.00,meteohub,2013-01-27 14:21:00,
2013-01-27 09:26:00,28.2,26.8,30.54,North,5,0.0,4.0,94,0.00,,,0.00,meteohub,2013-01-27 14:26:00,
2013-01-27 09:31:00,28.6,27.1,30.54,NNE,25,1.0,4.0,94,0.00,,,0.00,meteohub,2013-01-27 14:31:00,
2013-01-27 09:36:00,28.9,27.5,30.54,NNE,26,0.0,3.0,94,0.00,,,0.00,meteohub,2013-01-27 14:36:00,
2013-01-27 09:41:00,29.5,27.7,30.55,NW,320,0.0,3.0,93,0.00,,,0.00,meteohub,2013-01-27 14:41:00,
2013-01-27 09:46:00,30.0,28.2,30.55,WSW,257,0.0,3.0,93,0.00,,,0.00,meteohub,2013-01-27 14:46:00,
2013-01-27 09:51:00,30.6,28.2,30.55,ESE,110,2.0,3.0,91,0.00,,,0.00,meteohub,2013-01-27 14:51:00,
2013-01-27 09:56:00,30.9,28.0,30.55,SW,228,2.0,3.0,89,0.00,,,0.00,meteohub,2013-01-27 14:56:00,
2013-01-27 10:01:00,31.5,28.4,30.55,West,281,0.0,3.0,88,0.00,,,0.00,meteohub,2013-01-27 15:01:00,
2013-01-27 10:06:00,31.8,28.8,30.55,West,260,0.0,3.0,88,0.00,,,0.00,meteohub,2013-01-27 15:06:00,
2013-01-27 10:11:00,32.4,29.1,30.55,WSW,258,0.0,2.0,88,0.00,,,0.00,meteohub,2013-01-27 15:11:00,
2013-01-27 10:16:00,32.7,28.8,30.55,SSW,201,2.0,2.0,85,0.00,,,0.00,meteohub,2013-01-27 15:16:00,
2013-01-27 10:21:00,33.1,29.1,30.55,SSW,198,4.0,4.0,85,0.00,,,0.00,meteohub,2013-01-27 15:21:00,
2013-01-27 10:26:00,33.1,28.8,30.55,West,270,3.0,5.0,84,0.00,,,0.00,meteohub,2013-01-27 15:26:00,
2013-01-27 10:31:00,32.9,28.2,30.56,WSW,253,3.0,5.0,83,0.00,,,0.00,meteohub,2013-01-27 15:31:00,
2013-01-27 10:36:00,32.9,28.2,30.56,SW,233,2.0,5.0,83,0.00,,,0.00,meteohub,2013-01-27 15:36:00,
2013-01-27 10:41:00,32.9,28.2,30.56,West,264,0.0,5.0,83,0.00,,,0.00,meteohub,2013-01-27 15:41:00,
2013-01-27 10:46:00,33.4,28.8,30.56,WNW,287,1.0,5.0,83,0.00,,,0.00,meteohub,2013-01-27 15:46:00,
2013-01-27 10:51:00,33.6,28.8,30.56,West,273,1.0,5.0,82,0.00,,,0.00,meteohub,2013-01-27 15:51:00,
2013-01-27 10:56:00,34.0,29.1,30.56,SSW,193,4.0,4.0,82,0.00,,,0.00,meteohub,2013-01-27 15:56:00,
2013-01-27 11:01:00,34.3,29.1,30.56,SSW,208,3.0,5.0,81,0.00,,,0.00,meteohub,2013-01-27 16:01:00,
2013-01-27 11:07:00,34.5,29.3,30.56,WSW,256,2.0,5.0,81,0.00,,,0.00,meteohub,2013-01-27 16:07:00,
2013-01-27 11:12:00,34.9,29.3,30.56,West,259,1.0,5.0,80,0.00,,,0.00,meteohub,2013-01-27 16:12:00,
2013-01-27 11:17:00,35.1,29.5,30.57,WNW,282,1.0,4.0,80,0.00,,,0.00,meteohub,2013-01-27 16:17:00,
2013-01-27 11:22:00,35.4,29.8,30.56,WSW,257,1.0,4.0,80,0.00,,,0.00,meteohub,2013-01-27 16:22:00,
2013-01-27 11:27:00,35.8,29.8,30.56,NW,310,0.0,4.0,79,0.00,,,0.00,meteohub,2013-01-27 16:27:00,
2013-01-27 11:32:00,36.1,30.0,30.56,WSW,248,3.0,4.0,78,0.00,,,0.00,meteohub,2013-01-27 16:32:00,
2013-01-27 11:36:00,36.1,30.0,30.56,WSW,250,3.0,7.0,78,0.00,,,0.00,meteohub,2013-01-27 16:36:00,
2013-01-27 11:42:00,36.3,29.8,30.56,SSW,193,3.0,7.0,77,0.00,,,0.00,meteohub,2013-01-27 16:42:00,
2013-01-27 11:47:00,36.9,30.4,30.55,WNW,286,2.0,7.0,77,0.00,,,0.00,meteohub,2013-01-27 16:47:00,
2013-01-27 11:52:00,36.9,30.0,30.55,WSW,245,4.0,5.0,76,0.00,,,0.00,meteohub,2013-01-27 16:52:00,
2013-01-27 11:57:00,37.0,30.2,30.55,SSW,192,2.0,6.0,76,0.00,,,0.00,meteohub,2013-01-27 16:57:00,
2013-01-27 12:02:00,37.8,30.6,30.54,NW,321,1.0,6.0,75,0.00,,,0.00,meteohub,2013-01-27 17:02:00,
2013-01-27 12:07:00,37.9,30.4,30.54,East,94,2.0,6.0,74,0.00,,,0.00,meteohub,2013-01-27 17:07:00,
2013-01-27 12:12:00,37.8,30.2,30.54,SSW,210,0.0,4.0,74,0.00,,,0.00,meteohub,2013-01-27 17:12:00,
2013-01-27 12:17:00,37.9,30.0,30.53,West,281,0.0,5.0,73,0.00,,,0.00,meteohub,2013-01-27 17:17:00,
2013-01-27 12:22:00,37.9,30.0,30.53,WNW,302,1.0,5.0,73,0.00,,,0.00,meteohub,2013-01-27 17:22:00,
2013-01-27 12:27:00,37.8,30.2,30.53,West,281,0.0,5.0,74,0.00,,,0.00,meteohub,2013-01-27 17:27:00,
2013-01-27 12:32:00,38.1,30.2,30.53,WSW,251,2.0,5.0,73,0.00,,,0.00,meteohub,2013-01-27 17:32:00,
2013-01-27 12:37:00,38.3,30.0,30.53,West,276,1.0,5.0,72,0.00,,,0.00,meteohub,2013-01-27 17:37:00,
2013-01-27 12:42:00,38.1,30.2,30.53,North,7,0.0,5.0,73,0.00,,,0.00,meteohub,2013-01-27 17:42:00,
2013-01-27 12:47:00,38.3,29.7,30.53,WNW,283,0.0,5.0,71,0.00,,,0.00,meteohub,2013-01-27 17:47:00,
2013-01-27 12:52:00,38.8,30.2,30.53,West,259,0.0,5.0,71,0.00,,,0.00,meteohub,2013-01-27 17:52:00,
2013-01-27 12:57:00,38.8,29.8,30.52,SSW,193,2.0,4.0,70,0.00,,,0.00,meteohub,2013-01-27 17:57:00,
2013-01-27 13:02:00,39.0,30.0,30.52,WSW,256,1.0,6.0,70,0.00,,,0.00,meteohub,2013-01-27 18:02:00,
2013-01-27 13:07:00,39.0,30.0,30.52,WSW,247,0.0,6.0,70,0.00,,,0.00,meteohub,2013-01-27 18:07:00,
2013-01-27 13:12:00,39.4,30.4,30.51,SSW,195,0.0,6.0,70,0.00,,,0.00,meteohub,2013-01-27 18:12:00,
2013-01-27 13:17:00,39.7,30.4,30.51,WSW,255,4.0,6.0,69,0.00,,,0.00,meteohub,2013-01-27 18:17:00,
2013-01-27 13:22:00,39.6,30.2,30.50,West,259,0.0,6.0,69,0.00,,,0.00,meteohub,2013-01-27 18:22:00,
2013-01-27 13:27:00,39.7,31.1,30.50,West,276,0.0,6.0,71,0.00,,,0.00,meteohub,2013-01-27 18:27:00,
2013-01-27 13:32:00,40.5,31.1,30.50,WNW,284,2.0,6.0,69,0.00,,,0.00,meteohub,2013-01-27 18:32:00,
2013-01-27 13:37:00,40.6,30.9,30.50,NW,307,0.0,4.0,68,0.00,,,0.00,meteohub,2013-01-27 18:37:00,
2013-01-27 13:42:00,41.0,30.9,30.50,SSW,195,1.0,4.0,67,0.00,,,0.00,meteohub,2013-01-27 18:42:00,
2013-01-27 13:47:00,41.2,31.5,30.50,WSW,253,2.0,4.0,68,0.00,,,0.00,meteohub,2013-01-27 18:47:00,
2013-01-27 13:52:00,41.4,32.0,30.51,West,264,2.0,4.0,69,0.00,,,0.00,meteohub,2013-01-27 18:52:00,
2013-01-27 13:57:00,41.4,31.3,30.50,WNW,291,0.0,4.0,67,0.00,,,0.00,meteohub,2013-01-27 18:57:00,
2013-01-27 14:02:00,41.2,31.1,30.50,West,274,1.0,4.0,67,0.00,,,0.00,meteohub,2013-01-27 19:02:00,
2013-01-27 14:07:00,40.8,31.1,30.50,NW,307,0.0,4.0,68,0.00,,,0.00,meteohub,2013-01-27 19:07:00,
2013-01-27 14:12:00,40.8,31.5,30.50,WSW,252,0.0,4.0,69,0.00,,,0.00,meteohub,2013-01-27 19:12:00,
2013-01-27 14:17:00,41.2,31.5,30.49,WNW,284,2.0,4.0,68,0.00,,,0.00,meteohub,2013-01-27 19:17:00,
2013-01-27 14:22:00,41.2,31.5,30.50,West,259,2.0,4.0,68,0.00,,,0.00,meteohub,2013-01-27 19:22:00,
2013-01-27 14:27:00,40.8,31.1,30.49,WSW,250,2.0,4.0,68,0.00,,,0.00,meteohub,2013-01-27 19:27:00,
2013-01-27 14:32:00,40.5,31.1,30.49,WNW,290,1.0,4.0,69,0.00,,,0.00,meteohub,2013-01-27 19:32:00,
2013-01-27 14:37:00,40.8,31.5,30.49,West,264,2.0,4.0,69,0.00,,,0.00,meteohub,2013-01-27 19:37:00,
2013-01-27 14:42:00,40.5,30.7,30.50,SSW,210,3.0,5.0,68,0.00,,,0.00,meteohub,2013-01-27 19:42:00,
2013-01-27 14:47:00,40.1,30.7,30.49,ESE,105,3.0,5.0,69,0.00,,,0.00,meteohub,2013-01-27 19:47:00,
2013-01-27 14:52:00,40.5,31.5,30.48,South,191,4.0,5.0,70,0.00,,,0.00,meteohub,2013-01-27 19:52:00,
2013-01-27 14:57:00,40.8,31.5,30.49,SSW,210,2.0,5.0,69,0.00,,,0.00,meteohub,2013-01-27 19:57:00,
2013-01-27 15:02:00,41.4,31.6,30.49,SSE,167,0.0,5.0,68,0.00,,,0.00,meteohub,2013-01-27 20:02:00,
2013-01-27 15:07:00,41.9,31.8,30.49,SSW,205,2.0,5.0,67,0.00,,,0.00,meteohub,2013-01-27 20:07:00,
2013-01-27 15:12:00,41.9,31.5,30.49,ESE,107,0.0,6.0,66,0.00,,,0.00,meteohub,2013-01-27 20:12:00,
2013-01-27 15:17:00,41.7,31.6,30.50,South,187,4.0,6.0,67,0.00,,,0.00,meteohub,2013-01-27 20:17:00,
2013-01-27 15:22:00,41.2,31.1,30.50,South,177,4.0,7.0,67,0.00,,,0.00,meteohub,2013-01-27 20:22:00,
2013-01-27 15:27:00,40.6,30.9,30.50,South,172,4.0,7.0,68,0.00,,,0.00,meteohub,2013-01-27 20:27:00,
2013-01-27 15:32:00,39.9,30.6,30.50,ESE,117,3.0,7.0,69,0.00,,,0.00,meteohub,2013-01-27 20:32:00,
2013-01-27 15:37:00,39.2,30.2,30.50,SSE,151,4.0,7.0,70,0.00,,,0.00,meteohub,2013-01-27 20:37:00,
2013-01-27 15:42:00,38.8,30.2,30.50,SSW,207,6.0,7.0,71,0.00,,,0.00,meteohub,2013-01-27 20:42:00,
2013-01-27 15:47:00,38.5,30.2,30.50,WSW,257,2.0,7.0,72,0.00,,,0.00,meteohub,2013-01-27 20:47:00,
2013-01-27 15:52:00,38.7,30.7,30.50,NW,314,2.0,7.0,73,0.00,,,0.00,meteohub,2013-01-27 20:52:00,
2013-01-27 15:57:00,38.8,30.6,30.50,North,0,0.0,7.0,72,0.00,,,0.00,meteohub,2013-01-27 20:57:00,
2013-01-27 16:02:00,38.8,30.2,30.51,SSE,160,4.0,5.0,71,0.00,,,0.00,meteohub,2013-01-27 21:02:00,
2013-01-27 16:07:00,38.7,30.4,30.50,West,266,1.0,5.0,72,0.00,,,0.00,meteohub,2013-01-27 21:07:00,
2013-01-27 16:12:00,38.3,30.0,30.51,West,277,0.0,5.0,72,0.00,,,0.00,meteohub,2013-01-27 21:12:00,
2013-01-27 16:17:00,38.1,30.2,30.51,SSW,198,2.0,5.0,73,0.00,,,0.00,meteohub,2013-01-27 21:17:00,
2013-01-27 16:22:00,37.9,30.0,30.52,SSW,205,1.0,3.0,73,0.00,,,0.00,meteohub,2013-01-27 21:22:00,
2013-01-27 16:27:00,37.8,30.2,30.51,SSW,200,1.0,4.0,74,0.00,,,0.00,meteohub,2013-01-27 21:27:00,
2013-01-27 16:32:00,37.6,30.0,30.51,SW,218,0.0,4.0,74,0.00,,,0.00,meteohub,2013-01-27 21:32:00,
2013-01-27 16:37:00,37.6,30.0,30.51,South,187,2.0,7.0,74,0.00,,,0.00,meteohub,2013-01-27 21:37:00,
2013-01-27 16:42:00,37.4,29.8,30.50,WSW,237,3.0,7.0,74,0.00,,,0.00,meteohub,2013-01-27 21:42:00,
2013-01-27 16:47:00,37.2,30.0,30.50,SSW,204,0.0,6.0,75,0.00,,,0.00,meteohub,2013-01-27 21:47:00,
2013-01-27 16:52:00,37.2,30.0,30.51,WSW,255,1.0,6.0,75,0.00,,,0.00,meteohub,2013-01-27 21:52:00,
2013-01-27 16:57:00,36.9,29.7,30.51,South,181,1.0,6.0,75,0.00,,,0.00,meteohub,2013-01-27 21:57:00,
2013-01-27 17:02:00,36.9,29.7,30.52,West,259,0.0,5.0,75,0.00,,,0.00,meteohub,2013-01-27 22:02:00,
2013-01-27 17:07:00,36.7,29.8,30.52,West,262,0.0,5.0,76,0.00,,,0.00,meteohub,2013-01-27 22:07:00,
2013-01-27 17:12:00,36.7,29.8,30.52,SSW,201,2.0,5.0,76,0.00,,,0.00,meteohub,2013-01-27 22:12:00,
2013-01-27 17:17:00,36.5,29.7,30.52,SSE,155,1.0,5.0,76,0.00,,,0.00,meteohub,2013-01-27 22:17:00,
2013-01-27 17:22:00,36.3,29.5,30.52,SSW,202,5.0,6.0,76,0.00,,,0.00,meteohub,2013-01-27 22:22:00,
2013-01-27 17:27:00,36.1,29.7,30.53,South,171,0.0,7.0,77,0.00,,,0.00,meteohub,2013-01-27 22:27:00,
2013-01-27 17:32:00,36.0,29.5,30.53,West,276,0.0,7.0,77,0.00,,,0.00,meteohub,2013-01-27 22:32:00,
2013-01-27 17:37:00,35.8,29.7,30.53,SW,231,0.0,6.0,78,0.00,,,0.00,meteohub,2013-01-27 22:37:00,
2013-01-27 17:42:00,35.6,29.5,30.53,SSE,167,1.0,4.0,78,0.00,,,0.00,meteohub,2013-01-27 22:42:00,
2013-01-27 17:47:00,35.4,29.3,30.53,SSW,201,0.0,3.0,78,0.00,,,0.00,meteohub,2013-01-27 22:47:00,
2013-01-27 17:52:00,35.4,29.5,30.53,SSE,165,4.0,4.0,79,0.00,,,0.00,meteohub,2013-01-27 22:52:00,
2013-01-27 17:57:00,35.2,29.3,30.53,SSW,208,0.0,6.0,79,0.00,,,0.00,meteohub,2013-01-27 22:57:00,
2013-01-27 18:02:00,35.1,29.1,30.53,SSW,195,1.0,6.0,79,0.00,,,0.00,meteohub,2013-01-27 23:02:00,
2013-01-27 18:07:00,34.9,29.1,30.52,SSW,198,1.0,6.0,79,0.00,,,0.00,meteohub,2013-01-27 23:07:00,
2013-01-27 18:12:00,34.7,29.1,30.53,SW,231,2.0,6.0,80,0.00,,,0.00,meteohub,2013-01-27 23:12:00,
2013-01-27 18:17:00,34.5,28.9,30.53,West,259,0.0,6.0,80,0.00,,,0.00,meteohub,2013-01-27 23:17:00,
2013-01-27 18:22:00,34.3,28.8,30.53,SSW,207,0.0,4.0,80,0.00,,,0.00,meteohub,2013-01-27 23:22:00,
2013-01-27 18:27:00,34.2,28.9,30.53,SSE,160,0.0,4.0,81,0.00,,,0.00,meteohub,2013-01-27 23:27:00,
2013-01-27 18:32:00,34.2,28.9,30.54,SSE,162,1.0,2.0,81,0.00,,,0.00,meteohub,2013-01-27 23:32:00,
2013-01-27 18:37:00,34.2,28.9,30.53,West,271,0.0,2.0,81,0.00,,,0.00,meteohub,2013-01-27 23:37:00,
2013-01-27 18:42:00,34.2,28.9,30.54,West,267,0.0,2.0,81,0.00,,,0.00,meteohub,2013-01-27 23:42:00,
2013-01-27 18:47:00,34.2,28.9,30.54,SSW,200,1.0,3.0,81,0.00,,,0.00,meteohub,2013-01-27 23:47:00,
2013-01-27 18:52:00,34.2,28.9,30.54,ESE,108,0.0,3.0,81,0.00,,,0.00,meteohub,2013-01-27 23:52:00,
2013-01-27 18:57:00,34.2,28.9,30.54,West,271,0.0,4.0,81,0.00,,,0.00,meteohub,2013-01-27 23:57:00,
2013-01-27 19:02:00,34.0,28.8,30.54,WSW,255,0.0,4.0,81,0.00,,,0.00,meteohub,2013-01-28 00:02:00,
2013-01-27 19:07:00,34.0,28.8,30.54,WSW,253,0.0,2.0,81,0.00,,,0.00,meteohub,2013-01-28 00:07:00,
2013-01-27 19:12:00,34.0,28.8,30.54,WNW,283,0.0,2.0,81,0.00,,,0.00,meteohub,2013-01-28 00:12:00,
2013-01-27 19:17:00,34.0,28.8,30.54,SSW,208,0.0,3.0,81,0.00,,,0.00,meteohub,2013-01-28 00:17:00,
2013-01-27 19:22:00,34.0,28.8,30.54,ESE,113,0.0,3.0,81,0.00,,,0.00,meteohub,2013-01-28 00:22:00,
2013-01-27 19:27:00,34.0,28.8,30.54,WSW,253,0.0,3.0,81,0.00,,,0.00,meteohub,2013-01-28 00:27:00,
2013-01-27 19:32:00,34.0,28.8,30.54,SE,142,0.0,4.0,81,0.00,,,0.00,meteohub,2013-01-28 00:32:00,
2013-01-27 19:37:00,34.2,28.9,30.54,NNW,340,0.0,4.0,81,0.00,,,0.00,meteohub,2013-01-28 00:37:00,
2013-01-27 19:42:00,34.2,29.3,30.54,North,354,0.0,4.0,82,0.00,,,0.00,meteohub,2013-01-28 00:42:00,
2013-01-27 19:47:00,34.2,28.9,30.54,WSW,257,1.0,1.0,81,0.00,,,0.00,meteohub,2013-01-28 00:47:00,
2013-01-27 19:52:00,34.0,28.8,30.55,SW,235,0.0,3.0,81,0.00,,,0.00,meteohub,2013-01-28 00:52:00,
2013-01-27 19:57:00,34.0,28.8,30.54,South,191,1.0,3.0,81,0.00,,,0.00,meteohub,2013-01-28 00:57:00,
2013-01-27 20:02:00,34.0,28.8,30.55,SW,222,1.0,3.0,81,0.00,,,0.00,meteohub,2013-01-28 01:02:00,
2013-01-27 20:07:00,34.0,28.8,30.55,South,181,0.0,2.0,81,0.00,,,0.00,meteohub,2013-01-28 01:07:00,
2013-01-27 20:12:00,34.0,28.8,30.55,WNW,288,0.0,2.0,81,0.00,,,0.00,meteohub,2013-01-28 01:12:00,
2013-01-27 20:17:00,34.2,28.9,30.55,WSW,246,0.0,2.0,81,0.00,,,0.00,meteohub,2013-01-28 01:17:00,
2013-01-27 20:22:00,34.2,28.9,30.55,WSW,238,0.0,2.0,81,0.00,,,0.00,meteohub,2013-01-28 01:22:00,
2013-01-27 20:27:00,34.2,28.9,30.55,SW,215,1.0,2.0,81,0.00,,,0.00,meteohub,2013-01-28 01:27:00,
2013-01-27 20:32:00,34.0,28.8,30.54,SW,229,0.0,3.0,81,0.00,,,0.00,meteohub,2013-01-28 01:32:00,
2013-01-27 20:37:00,34.0,28.8,30.54,SSW,193,2.0,3.0,81,0.00,,,0.00,meteohub,2013-01-28 01:37:00,
2013-01-27 20:42:00,34.2,28.9,30.54,WSW,254,0.0,3.0,81,0.00,,,0.00,meteohub,2013-01-28 01:42:00,
2013-01-27 20:47:00,34.2,28.9,30.54,SE,143,0.0,2.0,81,0.00,,,0.00,meteohub,2013-01-28 01:47:00,
2013-01-27 20:52:00,34.2,28.9,30.54,SSE,155,0.0,2.0,81,0.00,,,0.00,meteohub,2013-01-28 01:52:00,
2013-01-27 20:57:00,34.2,28.9,30.54,SSW,201,0.0,2.0,81,0.00,,,0.00,meteohub,2013-01-28 01:57:00,
2013-01-27 21:02:00,34.2,28.9,30.54,WNW,293,0.0,2.0,81,0.00,,,0.00,meteohub,2013-01-28 02:02:00,
2013-01-27 21:07:00,34.2,28.9,30.54,SSE,155,0.0,2.0,81,0.00,,,0.00,meteohub,2013-01-28 02:07:00,
2013-01-27 21:12:00,34.2,28.9,30.54,SSW,206,2.0,2.0,81,0.00,,,0.00,meteohub,2013-01-28 02:12:00,
2013-01-27 21:17:00,34.3,29.1,30.54,West,276,0.0,3.0,81,0.00,,,0.00,meteohub,2013-01-28 02:17:00,
2013-01-27 21:22:00,34.3,29.1,30.55,SSW,197,0.0,3.0,81,0.00,,,0.00,meteohub,2013-01-28 02:22:00,
2013-01-27 21:27:00,34.3,29.1,30.55,SW,224,0.0,3.0,81,0.00,,,0.00,meteohub,2013-01-28 02:27:00,
2013-01-27 21:32:00,34.5,28.9,30.55,NW,305,0.0,1.0,80,0.00,,,0.00,meteohub,2013-01-28 02:32:00,
2013-01-27 21:37:00,34.7,28.9,30.54,SW,226,0.0,1.0,79,0.00,,,0.00,meteohub,2013-01-28 02:37:00,
2013-01-27 21:42:00,34.7,28.9,30.54,WSW,257,0.0,3.0,79,0.00,,,0.00,meteohub,2013-01-28 02:42:00,
2013-01-27 21:47:00,34.9,29.1,30.55,SSW,207,2.0,3.0,79,0.00,,,0.00,meteohub,2013-01-28 02:47:00,
2013-01-27 21:52:00,34.9,28.8,30.54,WSW,252,0.0,3.0,78,0.00,,,0.00,meteohub,2013-01-28 02:52:00,
2013-01-27 21:57:00,34.9,28.8,30.54,WSW,248,1.0,4.0,78,0.00,,,0.00,meteohub,2013-01-28 02:57:00,
2013-01-27 22:02:00,34.9,28.8,30.54,WSW,242,0.0,4.0,78,0.00,,,0.00,meteohub,2013-01-28 03:02:00,
2013-01-27 22:07:00,34.9,28.4,30.54,WSW,245,0.0,4.0,77,0.00,,,0.00,meteohub,2013-01-28 03:07:00,
2013-01-27 22:12:00,34.9,28.8,30.54,West,269,0.0,4.0,78,0.00,,,0.00,meteohub,2013-01-28 03:12:00,
2013-01-27 22:17:00,34.9,28.4,30.54,WSW,255,1.0,3.0,77,0.00,,,0.00,meteohub,2013-01-28 03:17:00,
2013-01-27 22:22:00,34.9,28.4,30.54,SSW,205,0.0,4.0,77,0.00,,,0.00,meteohub,2013-01-28 03:22:00,
2013-01-27 22:27:00,34.9,28.4,30.54,SSW,199,1.0,4.0,77,0.00,,,0.00,meteohub,2013-01-28 03:27:00,
2013-01-27 22:32:00,34.9,28.4,30.54,WSW,253,0.0,5.0,77,0.00,,,0.00,meteohub,2013-01-28 03:32:00,
2013-01-27 22:37:00,34.9,28.4,30.54,SW,221,0.0,5.0,77,0.00,,,0.00,meteohub,2013-01-28 03:37:00,
2013-01-27 22:42:00,34.9,28.4,30.54,WSW,257,0.0,5.0,77,0.00,,,0.00,meteohub,2013-01-28 03:42:00,
2013-01-27 22:47:00,35.1,28.6,30.55,NE,41,0.0,4.0,77,0.00,,,0.00,meteohub,2013-01-28 03:47:00,
2013-01-27 22:52:00,35.1,28.6,30.53,SSE,163,0.0,3.0,77,0.00,,,0.00,meteohub,2013-01-28 03:52:00,
2013-01-27 22:57:00,35.1,28.6,30.53,SW,235,0.0,3.0,77,0.00,,,0.00,meteohub,2013-01-28 03:57:00,
2013-01-27 23:02:00,35.1,28.6,30.53,SW,235,0.0,5.0,77,0.00,,,0.00,meteohub,2013-01-28 04:02:00,
2013-01-27 23:07:00,35.1,28.6,30.53,SW,226,0.0,5.0,77,0.00,,,0.00,meteohub,2013-01-28 04:07:00,
2013-01-27 23:12:00,35.1,28.6,30.52,South,176,0.0,5.0,77,0.00,,,0.00,meteohub,2013-01-28 04:12:00,
2013-01-27 23:17:00,35.1,28.6,30.52,NW,304,0.0,3.0,77,0.00,,,0.00,meteohub,2013-01-28 04:17:00,
2013-01-27 23:22:00,35.1,28.6,30.53,West,271,0.0,2.0,77,0.00,,,0.00,meteohub,2013-01-28 04:22:00,
2013-01-27 23:26:00,35.1,28.6,30.51,ESE,113,0.0,2.0,77,0.00,,,0.00,meteohub,2013-01-28 04:26:00,
2013-01-27 23:31:00,35.1,28.6,30.52,WNW,283,1.0,2.0,77,0.00,,,0.00,meteohub,2013-01-28 04:31:00,
2013-01-27 23:37:00,34.9,28.4,30.52,SSW,201,0.0,2.0,77,0.00,,,0.00,meteohub,2013-01-28 04:37:00,
2013-01-27 23:42:00,34.9,28.4,30.52,West,269,0.0,2.0,77,0.00,,,0.00,meteohub,2013-01-28 04:42:00,
2013-01-27 23:47:00,34.9,28.4,30.52,SW,226,0.0,2.0,77,0.00,,,0.00,meteohub,2013-01-28 04:47:00,
2013-01-27 23:52:00,34.9,28.8,30.52,SW,235,0.0,3.0,78,0.00,,,0.00,meteohub,2013-01-28 04:52:00,
2013-01-27 23:57:00,34.9,28.4,30.51,West,259,0.0,3.0,77,0.00,,,0.00,meteohub,2013-01-28 04:57:00,